[[{"header":{"parameterUnit":"m.s-1","parameterCategory":1,"la1":30.2992,"la2":30.254,"lo1":-89.0895,"lo2":-89.0443,"dy":0.0025,"dx":0.0025,"nx":19,"ny":19,"refTime":"2026-05-12T09:00:00:Z","depth":0,"parameterNumber":2,"parameterNumberName":"U-component_of_WINDS"},"data":[0,0,0,-1.475,-1.4752,-1.4866,-1.4867,-1.5002,-1.5003,0,0,0,0,0,0,0,0,0,0,0,-1.4711,-1.4712,-1.475,-1.4753,-1.4866,-1.4867,-1.5002,-1.5003,0,0,0,0,0,0,0,0,0,0,0,-1.4711,-1.4711,-1.4712,-1.4753,-1.4866,-1.4867,-1.5002,-1.4919,0,0,0,0,0,0,0,0,0,0,-1.481,-1.4769,-1.4711,-1.4712,-1.4754,-1.4866,-1.4867,-1.4915,-1.4924,-1.4946,0,-1.4965,0,-1.4986,-1.5012,-1.5012,0,0,0,-1.4756,-1.4762,-1.4797,-1.4713,-1.4755,-1.4866,-1.4816,-1.492,-1.4931,-1.4958,-1.4967,-1.4972,-1.4988,-1.5012,-1.5013,-1.5128,-1.5128,0,0,-1.475,-1.4729,-1.479,-1.4804,-1.4786,-1.4812,-1.482,-1.4927,-1.4935,-1.4968,-1.4976,-1.4991,-1.5013,-1.5014,-1.5128,-1.5128,0,0,0,-1.4729,-1.4724,-1.4757,-1.4798,-1.4819,-1.4816,-1.4824,-1.493,-1.4943,-1.4977,-1.4992,-1.5014,-1.5016,-1.5127,-1.5128,-1.5125,0,0,0,-1.4726,-1.4712,-1.4754,-1.4742,-1.4817,-1.4876,-1.4825,-1.4935,-1.4948,-1.4992,-1.5014,-1.5017,-1.5127,-1.5127,-1.5124,-1.5127,0,0,0,-1.4705,-1.471,-1.4724,-1.4741,-1.4789,-1.4875,-1.4894,-1.4939,-1.4957,-1.5012,-1.5017,-1.5127,-1.5127,-1.5123,-1.5126,-1.5151,0,0,0,-1.4677,-1.472,-1.4724,-1.4777,-1.4788,-1.4872,-1.4894,-1.4958,-1.5004,-1.5015,-1.5127,-1.5128,-1.5123,-1.5126,-1.515,-1.5169,-1.5174,0,0,-1.4719,-1.4724,-1.4758,-1.4764,-1.4843,-1.4857,-1.4934,-1.4998,-1.5022,-1.5091,-1.5094,-1.5124,-1.5126,-1.5151,-1.5211,-1.5216,0,0,0,-1.4764,-1.4787,-1.4813,-1.4856,-1.4905,-1.4947,-1.5001,-1.5024,-1.5083,-1.5053,-1.514,-1.5142,-1.5157,-1.5167,-1.5171,-1.5185,-1.5131,-1.5131,-1.5131,-1.4793,-1.4822,-1.4879,-1.4921,-1.4963,-1.5016,-1.5053,-1.5093,-1.511,-1.513,-1.5151,-1.5184,-1.5195,-1.5198,-1.5212,-1.5162,-1.5162,-1.5162,-1.5162,-1.4858,-1.4896,-1.4917,-1.4979,-1.5009,-1.5062,-1.5114,-1.5124,-1.5177,-1.5171,-1.5186,-1.5178,-1.5201,-1.5216,-1.5162,-1.5162,-1.5162,-1.5162,-1.5162,-1.4882,-1.4905,-1.4932,-1.4997,-1.5043,-1.5084,-1.5133,-1.5158,-1.5182,-1.5197,-1.5222,-1.5222,-1.5225,-1.5207,-1.5207,-1.5207,-1.5207,-1.5207,-1.5207,-1.4896,-1.4926,-1.4965,-1.502,-1.505,-1.5093,-1.5146,-1.5177,-1.5217,-1.5231,-1.5231,-1.5246,-1.5198,-1.5186,-1.5209,-1.5209,-1.5209,-1.5208,-1.5208,-1.4953,-1.4943,-1.5004,-1.5034,-1.5099,-1.5143,-1.5174,-1.5233,-1.5262,-1.5285,-1.5296,-1.5256,-1.5263,-1.5261,-1.5251,-1.529,-1.529,-1.529,-1.529,-1.4973,-1.4979,-1.5045,-1.5092,-1.5141,-1.5174,-1.524,-1.528,-1.5321,-1.534,-1.5337,-1.5326,-1.5322,-1.5331,-1.5327,-1.5318,-1.5374,-1.5374,-1.5374,-1.501,-1.5021,-1.5073,-1.5113,-1.5165,-1.5209,-1.5271,-1.5323,-1.5366,-1.5378,-1.5355,-1.5351,-1.5333,-1.5326,-1.5338,-1.5331,-1.5316,0,0]},{"header":{"parameterUnit":"m.s-1","parameterCategory":1,"la1":30.2992,"la2":30.254,"lo1":-89.0895,"lo2":-89.0443,"dy":0.0025,"dx":0.0025,"nx":19,"ny":19,"refTime":"2026-05-12T09:00:00:Z","depth":0,"parameterNumber":3,"parameterNumberName":"V-component_of_WINDS"},"data":[0,0,0,-5.3084,-5.3088,-5.3262,-5.3262,-5.3482,-5.3484,0,0,0,0,0,0,0,0,0,0,0,-5.3034,-5.3036,-5.3084,-5.3088,-5.3262,-5.3262,-5.3481,-5.3484,0,0,0,0,0,0,0,0,0,0,0,-5.3033,-5.3035,-5.3037,-5.3089,-5.3262,-5.3263,-5.3481,-5.335,0,0,0,0,0,0,0,0,0,0,-5.3181,-5.3138,-5.3035,-5.3037,-5.309,-5.3261,-5.3263,-5.3344,-5.3358,-5.3403,0,-5.3446,0,-5.3468,-5.3499,-5.3499,0,0,0,-5.3086,-5.3126,-5.3171,-5.3038,-5.3091,-5.3261,-5.3183,-5.3352,-5.3368,-5.3422,-5.3449,-5.3457,-5.3472,-5.35,-5.3501,-5.3772,-5.3773,0,0,-5.3077,-5.3065,-5.316,-5.3182,-5.3159,-5.3177,-5.3188,-5.3362,-5.3389,-5.345,-5.3462,-5.3476,-5.3501,-5.3503,-5.3771,-5.3772,0,0,0,-5.305,-5.3059,-5.31,-5.3173,-5.3205,-5.3182,-5.3195,-5.3381,-5.3396,-5.3464,-5.3478,-5.3503,-5.3505,-5.3769,-5.3771,-5.3829,0,0,0,-5.3045,-5.3044,-5.3096,-5.3091,-5.3202,-5.3296,-5.3211,-5.3384,-5.3404,-5.3477,-5.3503,-5.3508,-5.3768,-5.377,-5.3825,-5.3859,0,0,0,-5.3022,-5.3041,-5.3067,-5.309,-5.3165,-5.3294,-5.3318,-5.3389,-5.3413,-5.35,-5.3508,-5.3767,-5.377,-5.382,-5.3852,-5.3928,0,0,0,-5.2994,-5.3114,-5.3068,-5.3207,-5.3163,-5.3329,-5.3317,-5.344,-5.3521,-5.3504,-5.3768,-5.3771,-5.3819,-5.3847,-5.3923,-5.3991,-5.4018,0,0,-5.314,-5.3131,-5.3214,-5.3177,-5.3349,-5.3303,-5.3482,-5.3565,-5.3582,-5.3707,-5.3713,-5.3826,-5.3851,-5.3927,-5.417,-5.4192,0,0,0,-5.3256,-5.3316,-5.3364,-5.3442,-5.351,-5.3571,-5.3629,-5.3659,-5.3767,-5.3645,-5.3874,-5.3889,-5.3934,-5.3966,-5.3985,-5.4024,-5.3785,-5.3785,-5.3785,-5.3446,-5.3463,-5.3601,-5.3639,-5.3715,-5.3773,-5.3835,-5.3886,-5.3879,-5.3933,-5.3971,-5.4117,-5.4155,-5.4169,-5.4209,-5.4006,-5.4007,-5.4007,-5.4007,-5.3662,-5.3749,-5.3738,-5.3868,-5.3884,-5.3992,-5.4052,-5.4043,-5.4145,-5.409,-5.413,-5.407,-5.4192,-5.4228,-5.4012,-5.4011,-5.401,-5.401,-5.4009,-5.3789,-5.3834,-5.3871,-5.3986,-5.4072,-5.4104,-5.4203,-5.4213,-5.4222,-5.4262,-5.4303,-5.4302,-5.4303,-5.428,-5.4281,-5.4281,-5.4282,-5.4282,-5.4282,-5.3908,-5.3947,-5.4031,-5.4114,-5.4165,-5.4234,-5.4292,-5.4342,-5.44,-5.4399,-5.4399,-5.4387,-5.4201,-5.4154,-5.429,-5.4289,-5.4288,-5.4287,-5.4287,-5.4123,-5.4076,-5.4205,-5.4257,-5.4354,-5.4438,-5.4449,-5.455,-5.4592,-5.464,-5.4619,-5.4479,-5.4471,-5.4456,-5.4418,-5.4615,-5.4615,-5.4615,-5.4615,-5.4231,-5.4228,-5.4363,-5.4445,-5.4526,-5.4549,-5.4692,-5.4738,-5.4777,-5.4804,-5.4776,-5.4725,-5.471,-5.4711,-5.4691,-5.4656,-5.4908,-5.4908,-5.4909,-5.4365,-5.437,-5.4492,-5.4532,-5.4608,-5.4672,-5.4807,-5.4899,-5.4933,-5.4921,-5.4825,-5.4812,-5.4731,-5.4704,-5.4691,-5.4659,-5.4595,0,0]}]]